Regional Weather Roundup
Issued by NWS

Home | Current Version | Previous Version | Graphics & Text | Print | Product List | Glossary On
Versions: 1 2 3 4 5 6 7 8 9 10 11 12 13 14 15 16 17 18 19 20 21 22 23 24 25 26 27 28 29 30 31 32 33 34 35 36 37 38 39 40 41 42 43 44 45 46 47 48 49 50
000
ASUS45 KBOU 221007
RWRCO

WEATHER ROUNDUP FOR COLORADO
NATIONAL WEATHER SERVICE DENVER/BOULDER CO
300 AM MST SAT NOV 22 2014

NOTE: "FAIR" INDICATES FEW OR NO CLOUDS BELOW 12000 FEET WITH NO
SIGNIFICANT WEATHER AND/OR OBSTRUCTIONS TO VISIBILITY.

COZ001>005-013-030-031-221100-
...NORTHWEST COLORADO...

CITY           SKY/WX    TMP DP  RH WIND       PRES   REMARKS
CRAIG          CLEAR     17  12  80 E3        30.05S
HAYDEN         CLEAR     21  14  73 SE7       30.04S WCI  13
MEEKER         CLEAR     25  18  74 VRB3      30.04F
MOUNT WERNER   NOT AVBL
STEAMBOAT SPGS CLEAR     16  13  90 CALM      30.05F
WALDEN         CLEAR     27  12  54 S16       30.00S WCI  14
$$

COZ006>008-011-221100-
...WEST CENTRAL VALLEYS...

CITY           SKY/WX    TMP DP  RH WIND       PRES   REMARKS
GRAND JUNCTION CLEAR     26  16  65 E3        30.10R
MONTROSE       CLEAR     22  17  81 S8        30.14R WCI  12
EAGLE          CLEAR     18  16  93 E3        30.13R
RIFLE          CLEAR     22  17  81 CALM      30.12R
DELTA          CLEAR     27  17  66 CALM      30.13R
NUCLA          CLEAR     28  21  74 E6        30.15S WCI  22
$$

COZ017>023-064>068-221100-
...SOUTHWEST COLORADO...

CITY           SKY/WX    TMP DP  RH WIND       PRES   REMARKS
DURANGO        CLEAR     20  16  84 CALM      30.12S
CORTEZ         CLEAR     18  15  88 NE3       30.13R
PAGOSA SPRINGS CLEAR     23  17  78 CALM      30.13F
TELLURIDE      PTCLDY    25  16  68 SE6       30.18R WCI  18
WOLF CREEK PAS CLEAR     18  14  86 SW17      30.15F WCI   2
$$

COZ009-010-012-014-032>034-037-058>063-221100-
...CENTRAL COLORADO...

CITY           SKY/WX    TMP DP  RH WIND       PRES   REMARKS
ASPEN          PTCLDY    17   9  70 S8        30.09R WCI   7
BUENA VISTA    PTCLDY    18  11  74 CALM      30.09S
COPPER MTN     CLEAR     27   1  33 SW17G25   30.10S WCI  14
BERTHOUD PASS  FAIR      16  12  86 NW32G40   30.03F WCI  -5
COTTONWOOD PAS PTCLDY    32  14  47 W12G18    30.08S WCI  23
GUNNISON       PTCLDY     9   7  92 CALM      30.20S
KREMMLING      PTCLDY    10   9  92 CALM      30.11R
LEADVILLE      PTCLDY     8   1  73 CALM      30.08R
MONARCH PASS   PTCLDY    18  12  79 W28       30.22R WCI  -1
SALIDA         PTCLDY    32  15  50 SW7       30.15S WCI  25
SUNLIGHT       CLEAR     23  18  80 CALM      30.12R
WILKERSON PASS PTCLDY    19  10  68 SW16G23   30.06F WCI   5
$$

COZ069>075-221100-
...SAN LUIS VALLEY/SANGRE DE CRISTO MOUNTAINS...

CITY           SKY/WX    TMP DP  RH WIND       PRES   REMARKS
ALAMOSA        PTCLDY     9   6  88 W5        30.12R WCI   1
LA VETA PASS   PTCLDY    27  16  63 S14G23    30.08S WCI  15
SAGUACHE       CLEAR     23  14  68 N16       30.12S WCI  10
$$

COZ035-036-038>040-221100-
...NORTHERN COLORADO FRONT RANGE...

CITY           SKY/WX    TMP DP  RH WIND       PRES   REMARKS
DENVER INTL AP CLEAR     40  17  39 S20       29.87F
DMNS CITY PARK   N/A     35  15  44 S9        29.87F WCI  28
AURORA         CLEAR     36  17  45 S16       29.89F
FRONT RANGE AP CLEAR     36  23  60 S20       29.88F
ERIE MUNI ARPT CLEAR     32  18  57 S6        29.86F WCI  26
BOULDER MUN AP CLEAR     46  12  25 SW14G21   29.84F
CENTENNIAL     CLEAR     36  15  42 S6        29.90F
BROOMFIELD     CLEAR     36  14  41 S6        29.88F
FORT COLLINS   PTCLDY    28  19  69 CALM      29.86F
LONGMONT       PTCLDY    38  18  42 S6        29.86F
$$

COZ041-046-047-076>085-087-088-221100-
...PIKES PEAK/PALMER DIVIDE AND SOUTHERN FOOTHILLS...

CITY           SKY/WX    TMP DP  RH WIND       PRES   REMARKS
COLO. SPRINGS  CLEAR     27  17  66 NE5       29.96F WCI  22
A. F. ACADEMY  CLEAR     22  14  70 N8        29.96F WCI  13
ELLICOTT       CLEAR     26  18  71 S5        29.95F WCI  20
FALCON         NOT AVBL
FORT CARSON    CLEAR     29  18  62 NW8       29.95F WCI  21
LIMON          PTCLDY    18  14  84 N6        29.93F WCI  10
MONUMENT HILL  CLEAR     30  14  51 S9        29.94F WCI  22
TRINIDAD       CLEAR     32  20  61 W15       29.99F WCI  22
$$

COZ042>045-048>051-090-091-221100-
...NORTHEAST COLORADO...

CITY           SKY/WX    TMP DP  RH WIND       PRES   REMARKS
GREELEY ARPT   PTCLDY    19  12  73 CALM      29.87F
AKRON          PTCLDY    39  20  46 SW14      29.87F
BURLINGTON     CLEAR     32  18  56 SW8       29.92F WCI  25
WRAY           CLEAR     33  21  61 SW10      29.88F WCI  25
STERLING       PTCLDY    27  23  86 SW6       29.87F WCI  20
HOLYOKE        CLEAR     27  18  69 SW8       29.86F WCI  18
FORT MORGAN    PTCLDY    25  20  83 W8        29.88F WCI  16
$$

COZ086-089-092>099-221100-
...SOUTHEAST COLORADO...

CITY           SKY/WX    TMP DP  RH WIND       PRES   REMARKS
PUEBLO         CLEAR     29  23  78 W7        29.96F WCI  22
LA JUNTA       CLEAR     30  27  88 W10       29.95F WCI  21
LAMAR          CLEAR     23  21  92 SW7       29.93F WCI  15
SPRINGFIELD      N/A     31  25  78 NW12      29.94F WCI  22
$$


USA.gov is the U.S. government's official web portal to all federal, state and local government web resources and services.